| time (UTC) | temp F | wind direction | speed MPH | gust MPH | rain 1hr in | rain 24hr in | rain mn in | humidity % | barometer mb |
| 20260503220156 | 65 | 305 | 7.0 | 11.0 | 0.00 | 0.00 | 0.00 | 75 | 1010.3 |
| 20260503215653 | 65 | 178 | 10.0 | 18.0 | 0.00 | 0.00 | 0.00 | 74 | 1010.4 |
| 20260503215149 | 65 | 158 | 6.0 | 11.0 | 0.00 | 0.00 | 0.00 | 76 | 1010.5 |
| 20260503214648 | 65 | 241 | 7.0 | 16.0 | 0.00 | 0.00 | 0.00 | 75 | 1010.5 |
| 20260503214143 | 65 | 191 | 14.0 | 16.0 | 0.00 | 0.00 | 0.00 | 75 | 1010.5 |
| 20260503213638 | 65 | 267 | 11.0 | 21.0 | 0.00 | 0.00 | 0.00 | 75 | 1010.6 |
| 20260503213134 | 65 | 212 | 8.0 | 17.0 | 0.00 | 0.00 | 0.00 | 74 | 1010.5 |
| 20260503212631 | 66 | 189 | 6.0 | 17.0 | 0.00 | 0.00 | 0.00 | 75 | 1010.2 |
| 20260503212129 | 66 | 241 | 4.0 | 12.0 | 0.00 | 0.00 | 0.00 | 74 | 1010.0 |
| 20260503211626 | 66 | 174 | 4.0 | 19.0 | 0.00 | 0.00 | 0.00 | 74 | 1010.1 |
| 20260503211121 | 66 | 178 | 5.0 | 19.0 | 0.00 | 0.00 | 0.00 | 74 | 1010.1 |
| 20260503210618 | 66 | 194 | 11.0 | 15.0 | 0.00 | 0.00 | 0.00 | 74 | 1010.0 |
| 20260503210115 | 65 | 286 | 13.0 | 17.0 | 0.00 | 0.00 | 0.00 | 75 | 1009.8 |
| 20260503205611 | 66 | 191 | 5.0 | 13.0 | 0.00 | 0.00 | 0.00 | 74 | 1009.9 |
| 20260503205107 | 65 | 274 | 11.0 | 15.0 | 0.00 | 0.00 | 0.00 | 75 | 1009.8 |
| 20260503204604 | 64 | 226 | 8.0 | 24.0 | 0.00 | 0.00 | 0.00 | 76 | 1009.9 |
| 20260503204101 | 64 | 224 | 9.0 | 21.0 | 0.00 | 0.00 | 0.00 | 77 | 1010.0 |
| 20260503203558 | 64 | 209 | 12.0 | 19.0 | 0.00 | 0.00 | 0.00 | 76 | 1009.8 |
| 20260503203055 | 65 | 153 | 12.0 | 16.0 | 0.00 | 0.00 | 0.00 | 76 | 1010.0 |
| 20260503202553 | 64 | 206 | 11.0 | 23.0 | 0.00 | 0.00 | 0.00 | 76 | 1009.9 |
| 20260503202051 | 65 | 212 | 12.0 | 24.0 | 0.00 | 0.00 | 0.00 | 75 | 1009.9 |
| 20260503201549 | 65 | 202 | 9.0 | 21.0 | 0.00 | 0.00 | 0.00 | 74 | 1009.9 |
| 20260503201046 | 65 | 222 | 14.0 | 22.0 | 0.00 | 0.00 | 0.00 | 74 | 1009.8 |
| 20260503200542 | 66 | 246 | 6.0 | 20.0 | 0.00 | 0.00 | 0.00 | 72 | 1009.5 |
| 20260503200038 | 66 | 189 | 16.0 | 23.0 | 0.00 | 0.00 | 0.00 | 73 | 1009.6 |
| 20260503195535 | 66 | 200 | 12.0 | 22.0 | 0.00 | 0.00 | 0.00 | 74 | 1009.8 |
| 20260503195027 | 66 | 227 | 9.0 | 19.0 | 0.00 | 0.00 | 0.00 | 72 | 1009.8 |
| 20260503194525 | 66 | 206 | 11.0 | 19.0 | 0.00 | 0.00 | 0.00 | 73 | 1009.6 |
| 20260503194024 | 66 | 195 | 15.0 | 20.0 | 0.00 | 0.00 | 0.00 | 72 | 1009.7 |
| 20260503193521 | 66 | 207 | 14.0 | 20.0 | 0.00 | 0.00 | 0.00 | 71 | 1009.5 |
| 20260503193017 | 67 | 203 | 13.0 | 13.0 | 0.00 | 0.00 | 0.00 | 69 | 1009.6 |
| 20260503192513 | 67 | 218 | 16.0 | 22.0 | 0.00 | 0.00 | 0.00 | 67 | 1009.3 |
| 20260503192008 | 68 | 232 | 11.0 | 18.0 | 0.00 | 0.00 | 0.00 | 65 | 1009.4 |
| 20260503191506 | 69 | 199 | 7.0 | 17.0 | 0.00 | 0.00 | 0.00 | 65 | 1009.4 |
| 20260503191002 | 70 | 194 | 9.0 | 12.0 | 0.00 | 0.00 | 0.00 | 62 | 1009.2 |
| 20260503190459 | 72 | 124 | 2.0 | 4.0 | 0.00 | 0.00 | 0.00 | 63 | 1009.4 |
| 20260503185956 | 71 | 219 | 6.0 | 8.0 | 0.00 | 0.00 | 0.00 | 60 | 1009.4 |
| 20260503185452 | 72 | 179 | 3.0 | 8.0 | 0.00 | 0.00 | 0.00 | 56 | 1009.5 |
| 20260503184952 | 73 | 153 | 2.0 | 5.0 | 0.00 | 0.00 | 0.00 | 57 | 1009.4 |
| 20260503184449 | 73 | 114 | 3.0 | 6.0 | 0.00 | 0.00 | 0.00 | 61 | 1009.4 |
| 20260503183945 | 73 | 108 | 3.0 | 4.0 | 0.00 | 0.00 | 0.00 | 60 | 1009.4 |
| 20260503183442 | 72 | 102 | 2.0 | 3.0 | 0.00 | 0.00 | 0.00 | 61 | 1009.4 |
| 20260503182939 | 72 | 179 | 2.0 | 4.0 | 0.00 | 0.00 | 0.00 | 64 | 1009.4 |
| 20260503182437 | 72 | 164 | 2.0 | 3.0 | 0.00 | 0.00 | 0.00 | 62 | 1009.3 |
| 20260503181935 | 72 | 104 | 2.0 | 3.0 | 0.00 | 0.00 | 0.00 | 61 | 1009.4 |
| 20260503181432 | 70 | 217 | 0.0 | 3.0 | 0.00 | 0.00 | 0.00 | 62 | 1009.4 |
| 20260503180927 | 70 | 297 | 0.0 | 1.0 | 0.00 | 0.00 | 0.00 | 60 | 1009.5 |
| 20260503180427 | 69 | 302 | 0.0 | 2.0 | 0.00 | 0.00 | 0.00 | 62 | 1009.5 |
| 20260503175923 | 70 | 233 | 0.0 | 2.0 | 0.00 | 0.00 | 0.00 | 63 | 1009.5 |
| 20260503175421 | 69 | 86 | 3.0 | 4.0 | 0.00 | 0.00 | 0.00 | 62 | 1009.3 |
| 20260503174916 | 69 | 156 | 0.0 | 3.0 | 0.00 | 0.00 | 0.00 | 62 | 1009.5 |
| 20260503174414 | 69 | 107 | 1.0 | 2.0 | 0.00 | 0.00 | 0.00 | 63 | 1009.4 |
| 20260503173909 | 68 | 191 | 2.0 | 2.0 | 0.00 | 0.00 | 0.00 | 66 | 1009.6 |
| 20260503173405 | 66 | 60 | 0.0 | 3.0 | 0.00 | 0.00 | 0.00 | 72 | 1009.6 |
| 20260503172902 | 66 | 192 | 3.0 | 4.0 | 0.00 | 0.00 | 0.00 | 71 | 1009.4 |
| 20260503172400 | 66 | 144 | 1.0 | 2.0 | 0.00 | 0.00 | 0.00 | 73 | 1009.5 |
| 20260503171855 | 65 | 99 | 0.0 | 1.0 | 0.00 | 0.00 | 0.00 | 73 | 1009.7 |
| 20260503171353 | 65 | 89 | 1.0 | 3.0 | 0.00 | 0.00 | 0.00 | 74 | 1009.5 |
| 20260503170850 | 64 | 45 | 2.0 | 4.0 | 0.00 | 0.00 | 0.00 | 75 | 1009.5 |
| 20260503170346 | 64 | 105 | 1.0 | 2.0 | 0.00 | 0.00 | 0.00 | 74 | 1009.4 |
| 20260503150738 | 56 | 245 | 2.0 | 3.0 | 0.00 | 0.00 | 0.00 | 80 | 1009.6 |
| 20260503150234 | 56 | 181 | 1.0 | 2.0 | 0.00 | 0.00 | 0.00 | 79 | 1009.5 |
| 20260503140159 | 52 | 280 | 1.0 | 3.0 | 0.00 | 0.00 | 0.00 | 84 | 1009.2 |
| 20260503131123 | 51 | 231 | 2.0 | 3.0 | 0.00 | 0.00 | 0.00 | 85 | 1009.3 |
| 20260503130621 | 51 | 278 | 1.0 | 3.0 | 0.00 | 0.00 | 0.00 | 85 | 1009.3 |
| 20260503130118 | 51 | 45 | 0.0 | 4.0 | 0.00 | 0.00 | 0.00 | 83 | 1009.4 |
| 20260503110510 | 50 | 271 | 2.0 | 3.0 | 0.00 | 0.00 | 0.00 | 88 | 1010.2 |
| 20260503090356 | 53 | 93 | 3.0 | 3.0 | 0.00 | 0.00 | 0.00 | 82 | 1011.2 |
| 20260503081323 | 53 | 121 | 1.0 | 2.0 | 0.00 | 0.00 | 0.00 | 82 | 1012.0 |
| 20260503080820 | 53 | 245 | 1.0 | 2.0 | 0.00 | 0.00 | 0.00 | 82 | 1012.0 |
| 20260503080317 | 53 | 328 | 1.0 | 2.0 | 0.00 | 0.00 | 0.00 | 81 | 1011.9 |
| 20260503072753 | 54 | 50 | 1.0 | 2.0 | 0.00 | 0.00 | 0.00 | 79 | 1012.1 |
| 20260503072250 | 55 | 269 | 0.0 | 2.0 | 0.00 | 0.00 | 0.00 | 80 | 1012.1 |
| 20260503071746 | 54 | 6 | 0.0 | 2.0 | 0.00 | 0.00 | 0.00 | 80 | 1012.0 |
| 20260503071244 | 55 | 322 | 0.0 | 2.0 | 0.00 | 0.00 | 0.00 | 78 | 1012.0 |
| 20260503070740 | 55 | 299 | 3.0 | 4.0 | 0.00 | 0.00 | 0.00 | 79 | 1012.0 |
| 20260503070238 | 55 | 148 | 0.0 | 2.0 | 0.00 | 0.00 | 0.00 | 78 | 1012.0 |
| 20260503060157 | 57 | 0 | 0.0 | 1.0 | 0.00 | 0.00 | 0.00 | 75 | 1011.9 |
| 20260503054644 | 58 | 293 | 0.0 | 2.0 | 0.00 | 0.00 | 0.00 | 73 | 1012.0 |
| 20260503054141 | 58 | 293 | 0.0 | 1.0 | 0.00 | 0.00 | 0.00 | 73 | 1011.9 |
| 20260503053639 | 58 | 239 | 0.0 | 1.0 | 0.00 | 0.00 | 0.00 | 72 | 1011.9 |
| 20260503053138 | 59 | 71 | 2.0 | 3.0 | 0.00 | 0.00 | 0.00 | 70 | 1011.9 |
| 20260503052634 | 59 | 26 | 1.0 | 1.0 | 0.00 | 0.00 | 0.00 | 70 | 1011.9 |
| 20260503052130 | 59 | 291 | 1.0 | 3.0 | 0.00 | 0.00 | 0.00 | 70 | 1011.8 |
| 20260503051625 | 59 | 242 | 0.0 | 1.0 | 0.00 | 0.00 | 0.00 | 68 | 1011.8 |
| 20260503051124 | 59 | 124 | 0.0 | 2.0 | 0.00 | 0.00 | 0.00 | 69 | 1011.8 |
| 20260503050620 | 59 | 38 | 0.0 | 2.0 | 0.00 | 0.00 | 0.00 | 70 | 1011.8 |
| 20260503050116 | 60 | 329 | 2.0 | 3.0 | 0.00 | 0.00 | 0.00 | 67 | 1011.7 |
| 20260503045614 | 60 | 9 | 0.0 | 1.0 | 0.00 | 0.00 | 0.00 | 69 | 1011.6 |
| 20260503045111 | 60 | 287 | 1.0 | 2.0 | 0.00 | 0.00 | 0.00 | 65 | 1011.7 |
| 20260503044608 | 60 | 142 | 0.0 | 0.0 | 0.00 | 0.00 | 0.00 | 66 | 1011.6 |
| 20260503044105 | 60 | 142 | 0.0 | 0.0 | 0.00 | 0.00 | 0.00 | 65 | 1011.6 |
| 20260503043601 | 60 | 50 | 0.0 | 2.0 | 0.00 | 0.00 | 0.00 | 68 | 1011.6 |
| 20260503043058 | 61 | 84 | 0.0 | 1.0 | 0.00 | 0.00 | 0.00 | 66 | 1011.5 |
| 20260503042555 | 61 | 299 | 0.0 | 2.0 | 0.00 | 0.00 | 0.00 | 62 | 1011.3 |
| 20260503042051 | 61 | 89 | 0.0 | 2.0 | 0.00 | 0.00 | 0.00 | 61 | 1011.3 |
| 20260503041548 | 61 | 311 | 2.0 | 3.0 | 0.00 | 0.00 | 0.00 | 63 | 1011.4 |
| 20260503041046 | 62 | 244 | 0.0 | 4.0 | 0.00 | 0.00 | 0.00 | 61 | 1011.2 |
| 20260503040543 | 62 | 254 | 2.0 | 3.0 | 0.00 | 0.00 | 0.00 | 59 | 1011.0 |
| 20260503040040 | 63 | 75 | 2.0 | 4.0 | 0.00 | 0.00 | 0.00 | 61 | 1011.1 |
| 20260503035537 | 64 | 49 | 0.0 | 2.0 | 0.00 | 0.00 | 0.00 | 58 | 1011.0 |
| 20260503035035 | 64 | 40 | 2.0 | 2.0 | 0.00 | 0.00 | 0.00 | 55 | 1011.0 |
| 20260503034531 | 63 | 293 | 3.0 | 6.0 | 0.00 | 0.00 | 0.00 | 58 | 1011.0 |
| 20260503034029 | 64 | 123 | 0.0 | 2.0 | 0.00 | 0.00 | 0.00 | 58 | 1010.9 |
| 20260503033526 | 63 | 305 | 3.0 | 5.0 | 0.00 | 0.00 | 0.00 | 56 | 1010.9 |
| 20260503033024 | 64 | 50 | 0.0 | 2.0 | 0.00 | 0.00 | 0.00 | 56 | 1010.6 |
| 20260503032522 | 64 | 277 | 3.0 | 6.0 | 0.00 | 0.00 | 0.00 | 56 | 1010.8 |
| 20260503032019 | 64 | 301 | 4.0 | 6.0 | 0.00 | 0.00 | 0.00 | 56 | 1010.3 |
| 20260503031517 | 65 | 277 | 5.0 | 6.0 | 0.00 | 0.00 | 0.00 | 53 | 1010.4 |
| 20260503031014 | 65 | 289 | 3.0 | 6.0 | 0.00 | 0.00 | 0.00 | 53 | 1010.1 |
| 20260503030510 | 65 | 293 | 3.0 | 8.0 | 0.00 | 0.00 | 0.00 | 55 | 1010.3 |
| 20260503030007 | 66 | 278 | 3.0 | 5.0 | 0.00 | 0.00 | 0.00 | 54 | 1010.1 |
| 20260503025504 | 66 | 280 | 3.0 | 7.0 | 0.00 | 0.00 | 0.00 | 54 | 1010.0 |
| 20260503025002 | 66 | 282 | 5.0 | 7.0 | 0.00 | 0.00 | 0.00 | 54 | 1010.0 |
| 20260503024457 | 67 | 268 | 5.0 | 7.0 | 0.00 | 0.00 | 0.00 | 53 | 1010.2 |
| 20260503023955 | 67 | 286 | 3.0 | 6.0 | 0.00 | 0.00 | 0.00 | 53 | 1009.9 |
| 20260503023452 | 67 | 330 | 3.0 | 7.0 | 0.00 | 0.00 | 0.00 | 51 | 1010.0 |
| 20260503022949 | 69 | 266 | 5.0 | 5.0 | 0.00 | 0.00 | 0.00 | 50 | 1009.8 |
| 20260503022444 | 69 | 295 | 3.0 | 4.0 | 0.00 | 0.00 | 0.00 | 47 | 1010.0 |
| 20260503021940 | 68 | 283 | 5.0 | 7.0 | 0.00 | 0.00 | 0.00 | 52 | 1009.6 |
| 20260503021436 | 69 | 308 | 3.0 | 6.0 | 0.00 | 0.00 | 0.00 | 54 | 1009.8 |
| 20260503020934 | 68 | 302 | 2.0 | 5.0 | 0.00 | 0.00 | 0.00 | 52 | 1009.7 |
| 20260503020432 | 68 | 267 | 6.0 | 7.0 | 0.00 | 0.00 | 0.00 | 50 | 1009.8 |
| 20260503015928 | 69 | 304 | 3.0 | 6.0 | 0.00 | 0.00 | 0.00 | 50 | 1009.8 |
| 20260503015424 | 69 | 263 | 3.0 | 5.0 | 0.00 | 0.00 | 0.00 | 52 | 1009.8 |
| 20260503014920 | 69 | 298 | 4.0 | 7.0 | 0.00 | 0.00 | 0.00 | 51 | 1009.8 |
| 20260503014418 | 69 | 290 | 3.0 | 9.0 | 0.00 | 0.00 | 0.00 | 47 | 1009.7 |
| 20260503013916 | 69 | 309 | 4.0 | 7.0 | 0.00 | 0.00 | 0.00 | 48 | 1009.8 |
| 20260503013412 | 71 | 295 | 3.0 | 7.0 | 0.00 | 0.00 | 0.00 | 41 | 1009.7 |
| 20260503012910 | 71 | 253 | 4.0 | 8.0 | 0.00 | 0.00 | 0.00 | 46 | 1009.7 |
| 20260503012408 | 71 | 262 | 5.0 | 8.0 | 0.00 | 0.00 | 0.00 | 45 | 1009.7 |
| 20260503011904 | 72 | 262 | 5.0 | 8.0 | 0.00 | 0.00 | 0.00 | 44 | 1009.8 |
| 20260503011401 | 72 | 239 | 4.0 | 7.0 | 0.00 | 0.00 | 0.00 | 43 | 1009.7 |
| 20260503010857 | 72 | 253 | 4.0 | 7.0 | 0.00 | 0.00 | 0.00 | 42 | 1009.9 |
| 20260503010354 | 72 | 265 | 3.0 | 6.0 | 0.00 | 0.00 | 0.00 | 49 | 1009.8 |
| 20260503005851 | 74 | 63 | 5.0 | 9.0 | 0.00 | 0.00 | 0.00 | 37 | 1009.7 |
| 20260503005349 | 74 | 93 | 1.0 | 7.0 | 0.00 | 0.00 | 0.00 | 42 | 1009.8 |
| 20260503004845 | 74 | 127 | 2.0 | 3.0 | 0.00 | 0.00 | 0.00 | 37 | 1009.8 |
| 20260503004342 | 73 | 115 | 2.0 | 4.0 | 0.00 | 0.00 | 0.00 | 37 | 1009.9 |
| 20260503003840 | 73 | 54 | 2.0 | 5.0 | 0.00 | 0.00 | 0.00 | 39 | 1009.8 |
| 20260503003336 | 73 | 67 | 4.0 | 7.0 | 0.00 | 0.00 | 0.00 | 42 | 1009.7 |
| 20260503002832 | 74 | 112 | 3.0 | 6.0 | 0.00 | 0.00 | 0.00 | 38 | 1009.6 |
| 20260503002325 | 74 | 53 | 4.0 | 11.0 | 0.00 | 0.00 | 0.00 | 39 | 1009.7 |
| 20260503001821 | 75 | 87 | 9.0 | 10.0 | 0.00 | 0.00 | 0.00 | 41 | 1009.7 |
| 20260503001317 | 75 | 131 | 1.0 | 5.0 | 0.00 | 0.00 | 0.00 | 36 | 1009.6 |
| 20260503000815 | 76 | 61 | 0.0 | 4.0 | 0.00 | 0.00 | 0.00 | 41 | 1009.7 |
| 20260503000313 | 75 | 195 | 3.0 | 7.0 | 0.00 | 0.00 | 0.00 | 38 | 1009.9 |
| 20260502235809 | 76 | 223 | 4.0 | 8.0 | 0.00 | 0.00 | 0.00 | 38 | 1009.7 |
| 20260502235307 | 77 | 70 | 0.0 | 4.0 | 0.00 | 0.00 | 0.00 | 39 | 1009.5 |
| 20260502234803 | 75 | 215 | 3.0 | 15.0 | 0.00 | 0.00 | 0.00 | 38 | 1009.8 |
| 20260502234300 | 75 | 122 | 5.0 | 11.0 | 0.00 | 0.00 | 0.00 | 36 | 1009.7 |
| 20260502233756 | 76 | 153 | 2.0 | 3.0 | 0.00 | 0.00 | 0.00 | 34 | 1010.0 |
| 20260502233253 | 76 | 133 | 4.0 | 11.0 | 0.00 | 0.00 | 0.00 | 39 | 1010.0 |
| 20260502232749 | 76 | 159 | 0.0 | 6.0 | 0.00 | 0.00 | 0.00 | 42 | 1009.8 |
| 20260502232246 | 77 | 110 | 2.0 | 4.0 | 0.00 | 0.00 | 0.00 | 40 | 1010.1 |
| 20260502231743 | 77 | 78 | 2.0 | 5.0 | 0.00 | 0.00 | 0.00 | 37 | 1010.0 |
| 20260502231240 | 77 | 139 | 3.0 | 5.0 | 0.00 | 0.00 | 0.00 | 37 | 1010.0 |
| 20260502230739 | 75 | 33 | 2.0 | 13.0 | 0.00 | 0.00 | 0.00 | 44 | 1010.1 |
| 20260502230237 | 75 | 9 | 7.0 | 12.0 | 0.00 | 0.00 | 0.00 | 41 | 1010.1 |
| 20260502225733 | 75 | 136 | 5.0 | 9.0 | 0.00 | 0.00 | 0.00 | 39 | 1010.0 |
| 20260502225230 | 75 | 87 | 4.0 | 14.0 | 0.00 | 0.00 | 0.00 | 41 | 1010.3 |
| 20260502224726 | 76 | 75 | 8.0 | 12.0 | 0.00 | 0.00 | 0.00 | 40 | 1010.4 |
| 20260502224223 | 76 | 81 | 6.0 | 12.0 | 0.00 | 0.00 | 0.00 | 37 | 1010.3 |
| 20260502223720 | 78 | 44 | 0.0 | 5.0 | 0.00 | 0.00 | 0.00 | 38 | 1010.5 |
| 20260502223218 | 77 | 121 | 2.0 | 4.0 | 0.00 | 0.00 | 0.00 | 36 | 1010.5 |
| 20260502222715 | 76 | 220 | 4.0 | 7.0 | 0.00 | 0.00 | 0.00 | 35 | 1010.8 |
| 20260502222206 | 76 | 213 | 5.0 | 7.0 | 0.00 | 0.00 | 0.00 | 38 | 1010.9 |
| 20260502221703 | 76 | 294 | 0.0 | 6.0 | 0.00 | 0.00 | 0.00 | 36 | 1010.9 |
| 20260502221159 | 76 | 67 | 3.0 | 5.0 | 0.00 | 0.00 | 0.00 | 38 | 1010.8 |
| 20260502220655 | 77 | 211 | 6.0 | 9.0 | 0.00 | 0.00 | 0.00 | 36 | 1011.0 |